Regional Weather Roundup
Issued by NWS

Home | Current Version | Previous Version | Graphics & Text | Print | Product List | Glossary On
Versions: 1 2 3 4 5 6 7 8 9 10 11 12 13 14 15 16 17 18 19 20 21 22 23 24 25 26 27 28 29 30 31 32 33 34 35 36 37 38 39 40 41 42 43 44 45 46 47 48 49 50
000
ASUS43 KLOT 251800
RWRIL

ILLINOIS REGIONAL WEATHER ROUNDUP
NATIONAL WEATHER SERVICE CHICAGO/ROMEOVILLE IL
100 PM CDT SAT OCT 25 2014

NOTE: "FAIR" INDICATES FEW OR NO CLOUDS BELOW 12,000 FEET WITH NO
SIGNIFICANT WEATHER AND/OR OBSTRUCTIONS TO VISIBILITY.

* THESE STATIONS ARE NOT UNDER NWS QUALITY CONTROL. THEY ALSO MAY NOT
  REPORT WEATHER SUCH AS PRECIPITATION OR FOG.

ILZ001-002-007-009-015-016-024-251900-
NORTHWEST ILLINOIS

CITY           SKY/WX    TMP DP  RH WIND       PRES   REMARKS
MOLINE         SUNNY     70  39  32 N8        30.02F
6HR MIN TEMP:  51; 6HR MAX TEMP:  70;

STERLING*      SUNNY     72  39  30 NW14      30.00F
$$

ILZ003-004-008-010-011-017-018-251900-
NORTH CENTRAL ILLINOIS

CITY           SKY/WX    TMP DP  RH WIND       PRES   REMARKS
ROCKFORD       MOSUNNY   70  37  29 W16       29.99S
6HR MIN TEMP:  49; 6HR MAX TEMP:  70;

$$

ILZ005-006-012>014-019>023-251900-
NORTHEAST ILLINOIS

CITY           SKY/WX    TMP DP  RH WIND       PRES   REMARKS
CHICAGO-OHARE  MOSUNNY   69  39  33 W14       29.93F
6HR MIN TEMP:  53; 6HR MAX TEMP:  69;

CHICAGO-MIDWAY MOSUNNY   72  42  34 W12       29.94F
6HR MIN TEMP:  56; 6HR MAX TEMP:  72;

AURORA         SUNNY     72  35  25 NW16      29.97F
6HR MIN TEMP:  47; 6HR MAX TEMP:  72;

WAUKEGAN       SUNNY     68  37  32 W9        29.91F
6HR MIN TEMP:  54; 6HR MAX TEMP:  68;

DUPAGE AIRPORT SUNNY     71  37  28 NW15      29.95F
6HR MIN TEMP:  53; 6HR MAX TEMP:  72;

WHEELING       SUNNY     71  37  28 W13G22    29.95F
6HR MIN TEMP:  56; 6HR MAX TEMP:  71;

NORTHERLY ISL    N/A     69  38  32 SW9         N/A
$$

LMZ740>746-251900-
SOUTHERN LAKE MICHIGAN

STATION/POSITION SKY/WX   TEMP    WIND        PRES    VSBY  WAVE
                          AIR SEA DIR/SP/G                  HT/PER
                          (F)     (DEG/KT/KT) (MB)    (MI)  (FT/S)
SOUTHERN BUOY              56 54  280/ 14/ 14 1012.9R         2/ 4
WAUKEGAN HARBOR            67     270/ 11/ 18   N/A
HARRISON CRIB              64     310/ 10/ 12   N/A
BURNHAM HARBOR             69     260/ 10/ 15   N/A
CALUMET HARBOR             70     290/  7/ 12 1012.8F
MICHIGAN CITY              58     200/  8/ 10   N/A
$$

ILZ025>027-034>036-040-047-049-050-058-095>099-251900-
WEST-CENTRAL ILLINOIS

CITY           SKY/WX    TMP DP  RH WIND       PRES   REMARKS
QUINCY         SUNNY     74  54  49 NW6       30.03F HAZE
$$

ILZ028>032-037-038-041>044-048-051>054-059>061-251900-
CENTRAL ILLINOIS

CITY           SKY/WX    TMP DP  RH WIND       PRES   REMARKS
DECATUR        SUNNY     75  55  49 W8        30.01F
PEORIA         SUNNY     71  52  50 W6        30.02F
6HR MIN TEMP:  55; 6HR MAX TEMP:  71;

SPRINGFIELD    SUNNY     78  54  43 NW7       30.01F
6HR MIN TEMP:  58; 6HR MAX TEMP:  78;

TAYLORVILLE    NOT AVBL
$$

ILZ033-039-045-046-055>057-062-063-251900-
EAST-CENTRAL ILLINOIS

CITY           SKY/WX    TMP DP  RH WIND       PRES   REMARKS
CHAMPAIGN      SUNNY     73  56  54 W10       30.00F
MATTOON        SUNNY     72  57  59 NW9       30.00S
$$

ILZ079-100>102-251900-
SOUTHWEST ILLINOIS

CITY           SKY/WX    TMP DP  RH WIND       PRES   REMARKS
BELLEVILLE     SUNNY     77  62  58 NW5       30.01F
CAHOKIA*       SUNNY     78  61  55 NW8       30.02F HX  80
$$

ILZ064>066-069>071-074>076-080>082-084>086-088>090-092>094-251900-
SOUTH-CENTRAL ILLINOIS

CITY           SKY/WX    TMP DP  RH WIND       PRES   REMARKS
CARBONDALE     SUNNY     77  60  55 NW7       30.02F
6HR MIN TEMP:  56; 6HR MAX TEMP:  78;

MT. VERNON     SUNNY     75  61  60 CALM      30.02F
$$

ILZ067-068-072-073-078-083-087-091-251900-
SOUTHEAST ILLINOIS

CITY           SKY/WX    TMP DP  RH WIND       PRES   REMARKS
LAWRENCEVILLE  SUNNY     75  56  51 NW5       29.99F
$$

ABBREVIATIONS USED IN REMARKS
   TC - TEMPERATURE IN CELSIUS
  WCI - WIND CHILL INDEX
   HX - HEAT INDEX
  VSB - VISIBILITY
$$




USA.gov is the U.S. government's official web portal to all federal, state and local government web resources and services.